This is the latest recevied weather packets stored in our database for station/object PY5AL-13. If no packets are shown the sender has not sent any weather packets the latest 10 day(s).
| Time | Temp. | Humidity | Pressure | Rain* | Wind** | Luminosity | Snow |
|---|---|---|---|---|---|---|---|
| 1777299246 | 26.67° C | 66% | 1014.6 hPa | - | - | - | - |
| 1777298046 | 26.11° C | 70% | 1014.6 hPa | - | - | - | - |
| 1777296846 | 26.11° C | 69% | 1014.5 hPa | - | - | - | - |
| 1777295646 | 26.11° C | 69% | 1014.8 hPa | - | - | - | - |
| 1777294446 | 25.56° C | 69% | 1014.6 hPa | - | - | - | - |
| 1777293246 | 25.56° C | 67% | 1014.4 hPa | - | - | - | - |
| 1777292046 | 25.56° C | 68% | 1014.7 hPa | - | - | - | - |
| 1777290846 | 25.56° C | 67% | 1014.5 hPa | - | - | - | - |
| 1777289646 | 26.11° C | 67% | 1014.4 hPa | - | - | - | - |
| 1777288446 | 25.56° C | 69% | 1014.4 hPa | - | - | - | - |
| 1777287246 | 25.56° C | 69% | 1014.4 hPa | - | - | - | - |
| 1777286046 | 25.56° C | 67% | 1013.8 hPa | - | - | - | - |
| 1777284846 | 26.11° C | 67% | 1014 hPa | - | - | - | - |
| 1777283646 | 25.56° C | 67% | 1013.8 hPa | - | - | - | - |
| 1777282446 | 26.11° C | 67% | 1013.3 hPa | - | - | - | - |
| 1777281246 | 26.11° C | 66% | 1013.2 hPa | - | - | - | - |
| 1777280046 | 26.11° C | 66% | 1013 hPa | - | - | - | - |
| 1777278846 | 26.11° C | 65% | 1012.8 hPa | - | - | - | - |
| 1777277646 | 26.11° C | 65% | 1012.1 hPa | - | - | - | - |
| 1777276447 | 26.11° C | 65% | 1012.2 hPa | - | - | - | - |
| 1777275246 | 26.67° C | 64% | 1012.1 hPa | - | - | - | - |
| 1777274047 | 26.67° C | 63% | 1011.7 hPa | - | - | - | - |
| 1777272846 | 26.67° C | 62% | 1011.6 hPa | - | - | - | - |
| 1777271647 | 26.67° C | 64% | 1011.3 hPa | - | - | - | - |
| 1777270447 | 27.22° C | 64% | 1011.2 hPa | - | - | - | - |
* Rain since midnight (hover to see other rain measurements)
** Current wind speed in m/s (hover to see current wind gust speed)